Tracking 27124 objects as of 31-Mar-2023
HD Live streaming from Space Station
objects crossing your sky now

SL-12 DEB

Track SL-12 DEB now!
10-day predictions


NORAD ID: 27918
Int'l Code: 1987-079AB
Perigee: 712.2 km
Apogee: 17,722.6 km
Inclination: 65.1 °
Period: 322.8 minutes
Semi major axis: 15588 km
RCS: 0.3222 m2 (medium)
Launch date: September 16, 1987
Source: Commonwealth of Independent States (former USSR) (CIS)
Launch site: TYURATAM MISSILE AND SPACE COMPLEX (TTMTR)

Note: This is SATELLITE DEBRIS
Your satellite tracking list
Your tracking list is empty




NASA's NSSDC Master Catalog

Two Line Element Set (TLE):
1 27918U 87079AB  23089.51177386  .00003315  00000-0  28724-1 0  9994
2 27918  65.0979 126.6857 5456095   0.3684 359.9793  4.46066268164766
Source of the keplerian elements: AFSPC